DL1WER-13 Weather Reports


time (UTC)temp
F
wind
direction
speed
knots
gust
knots
rain 1hr
in
rain 24hr
in
rain mn
in
humidity
%
barometer
mb
20260502163019 77 174 2.6 5.2 0.00 0.00 0.00 26 1043.5
20260502162019 77 270 1.7 4.3 0.00 0.00 0.00 26 1043.6
20260502161019 77 340 1.7 2.6 0.00 0.00 0.00 22 1043.7
20260502152018 78 258 0.9 1.7 0.00 0.00 0.00 23 1044.2
20260502151019 77 203 2.6 5.2 0.00 0.00 0.00 23 1044.4
20260502123019 76 311 1.7 6.1 0.00 0.00 0.00 24 1046.2
20260502122018 76 287 1.7 3.5 0.00 0.00 0.00 27 1046.4
20260502121019 75 174 3.5 5.2 0.00 0.00 0.00 26 1046.4
20260502115018 75 342 2.6 7.0 0.00 0.00 0.00 26 1046.8
20260502114018 74 264 2.6 6.1 0.00 0.00 0.00 28 1046.8
20260502113019 73 319 2.6 4.3 0.00 0.00 0.00 29 1047.1
20260502112018 73 315 2.6 6.1 0.00 0.00 0.00 30 1047.2
20260502111018 74 313 1.7 6.1 0.00 0.00 0.00 28 1046.9
20260502110019 73 195 2.6 5.2 0.00 0.00 0.00 30 1047.3
20260502105019 74 348 2.6 7.0 0.00 0.00 0.00 27 1047.5
20260502104019 74 307 1.7 3.5 0.00 0.00 0.00 28 1047.4
20260502103019 73 347 2.6 6.1 0.00 0.00 0.00 28 1047.5
20260502102018 73 229 3.5 6.1 0.00 0.00 0.00 26 1047.9
20260502101019 74 132 0.9 3.5 0.00 0.00 0.00 30 1047.7
20260502091019 69 348 2.6 6.1 0.00 0.00 0.00 35 1048.0
20260502071019 60 301 1.7 3.5 0.00 0.00 0.00 55 1048.7
20260502070019 59 321 1.7 2.6 0.00 0.00 0.00 57 1048.5
20260502065018 58 263 0.9 1.7 0.00 0.00 0.00 61 1048.7
20260502064018 54 299 0.9 2.6 0.00 0.00 0.00 65 1048.9
20260502063019 53 315 0.9 1.7 0.00 0.00 0.00 67 1048.8
20260502062018 51 308 0.9 1.7 0.00 0.00 0.00 70 1048.9
20260502061018 49 272 1.7 2.6 0.00 0.00 0.00 70 1049.1
20260502060019 47 293 1.7 3.5 0.00 0.00 0.00 70 1048.7
20260502055019 46 301 1.7 2.6 0.00 0.00 0.00 70 1048.6
20260502054018 46 310 0.9 1.7 0.00 0.00 0.00 72 1048.8
20260502053019 44 338 2.6 3.5 0.00 0.00 0.00 79 1048.9
20260502052018 43 323 1.7 3.5 0.00 0.00 0.00 80 1048.9
20260502051018 42 290 1.7 3.5 0.00 0.00 0.00 80 1048.7
20260502050019 42 312 0.9 2.6 0.00 0.00 0.00 81 1048.8
20260502045018 41 296 1.7 3.5 0.00 0.00 0.00 82 1048.9
20260502044019 41 325 0.9 1.7 0.00 0.00 0.00 84 1048.7
20260502043019 39 344 1.7 3.5 0.00 0.00 0.00 85 1048.8
20260502042018 38 282 0.9 2.6 0.00 0.00 0.00 84 1048.8
20260502041019 38 331 0.9 3.5 0.00 0.00 0.00 85 1048.7
20260502040019 38 308 0.9 2.6 0.00 0.00 0.00 84 1048.7
20260502035018 38 293 0.9 2.6 0.00 0.00 0.00 84 1048.7
20260502034018 39 346 0.9 2.6 0.00 0.00 0.00 83 1048.7
20260502033018 39 277 0.9 1.7 0.00 0.00 0.00 83 1048.7
20260502032018 39 321 0.9 1.7 0.00 0.00 0.00 83 1048.6
20260502031018 40 329 0.0 1.7 0.00 0.00 0.00 83 1048.7
20260502030019 40 312 0.0 1.7 0.00 0.00 0.00 83 1048.9
20260502025018 40 0 0.0 0.9 0.00 0.00 0.00 82 1048.8
20260502024018 41 244 0.0 1.7 0.00 0.00 0.00 82 1048.8
20260502023018 41 273 0.0 1.7 0.00 0.00 0.00 82 1048.8
20260502022018 41 307 0.0 1.7 0.00 0.00 0.00 82 1049.0
20260502021019 41 253 0.9 1.7 0.00 0.00 0.00 82 1048.8
20260502020018 41 271 0.9 1.7 0.00 0.00 0.00 82 1048.8
20260502015018 42 170 0.0 1.7 0.00 0.00 0.00 81 1049.1
20260502014019 42 291 0.0 1.7 0.00 0.00 0.00 81 1048.8
20260502013018 43 270 0.0 1.7 0.00 0.00 0.00 82 1049.1
20260502012018 43 329 0.0 1.7 0.00 0.00 0.00 81 1048.9
20260502011018 43 0 0.0 0.0 0.00 0.00 0.00 80 1049.0
20260502010020 43 172 0.0 1.7 0.00 0.00 0.00 80 1049.1
20260502005018 44 162 0.9 1.7 0.00 0.00 0.00 81 1049.1
20260502004018 44 290 0.0 1.7 0.00 0.00 0.00 80 1049.1
20260502003020 44 0 0.0 0.0 0.00 0.00 0.00 79 1049.4
20260502002018 44 198 0.0 1.7 0.00 0.00 0.00 78 1049.3
20260502001018 45 149 0.0 1.7 0.00 0.00 0.00 77 1049.3
20260502000019 45 149 0.0 1.7 0.00 0.00 0.00 76 1049.3
20260501235018 46 0 0.0 0.0 0.00 0.00 0.00 70 1049.7
20260501234018 46 141 0.9 1.7 0.00 0.00 0.00 70 1049.6
20260501233018 47 225 0.0 1.7 0.00 0.00 0.00 67 1049.5
20260501232018 47 198 0.0 1.7 0.00 0.00 0.00 68 1049.5
20260501231018 47 135 0.0 1.7 0.00 0.00 0.00 66 1049.6
20260501230018 47 0 0.0 0.0 0.00 0.00 0.00 63 1049.6
20260501225018 48 172 0.0 1.7 0.00 0.00 0.00 62 1049.6
20260501224017 49 143 0.9 1.7 0.00 0.00 0.00 62 1049.8
20260501223019 50 141 0.0 1.7 0.00 0.00 0.00 61 1049.9
20260501222018 50 219 0.0 1.7 0.00 0.00 0.00 60 1049.7
20260501221017 50 182 0.9 1.7 0.00 0.00 0.00 60 1050.0
20260501220023 51 158 0.9 1.7 0.00 0.00 0.00 60 1049.9
20260501215019 52 159 0.9 2.6 0.00 0.00 0.00 57 1049.8
20260501214018 53 225 0.0 1.7 0.00 0.00 0.00 53 1049.8
20260501213019 54 225 0.9 1.7 0.00 0.00 0.00 52 1049.9
20260501212019 54 225 0.9 2.6 0.00 0.00 0.00 52 1049.8
20260501211019 54 225 0.9 1.7 0.00 0.00 0.00 51 1050.0
20260501210019 55 230 0.9 2.6 0.00 0.00 0.00 47 1050.1
20260501205020 56 239 0.9 2.6 0.00 0.00 0.00 46 1050.0
20260501204018 56 233 0.9 3.5 0.00 0.00 0.00 45 1049.9
20260501203019 56 244 0.9 1.7 0.00 0.00 0.00 45 1050.2
20260501202018 57 250 0.9 2.6 0.00 0.00 0.00 45 1050.0
20260501201018 57 241 0.9 3.5 0.00 0.00 0.00 45 1050.1
20260501200019 57 212 0.9 1.7 0.00 0.00 0.00 44 1050.1
20260501195019 58 212 0.9 1.7 0.00 0.00 0.00 43 1050.1
20260501194019 59 221 0.9 2.6 0.00 0.00 0.00 42 1050.0
20260501193019 60 278 1.7 4.3 0.00 0.00 0.00 41 1049.8
20260501192018 60 277 2.6 7.0 0.00 0.00 0.00 41 1049.6
20260501191019 60 269 3.5 6.1 0.00 0.00 0.00 41 1049.7
20260501190019 61 286 2.6 3.5 0.00 0.00 0.00 40 1049.8
20260501185018 61 259 2.6 3.5 0.00 0.00 0.00 40 1049.7
20260501184018 62 252 2.6 4.3 0.00 0.00 0.00 40 1049.5
20260501183019 63 274 2.6 4.3 0.00 0.00 0.00 38 1049.6
20260501182018 64 259 2.6 3.5 0.00 0.00 0.00 33 1049.4
20260501181019 65 233 2.6 4.3 0.00 0.00 0.00 32 1049.5
20260501180019 66 249 2.6 7.0 0.00 0.00 0.00 30 1049.4
20260501175018 66 272 3.5 7.0 0.00 0.00 0.00 30 1049.3
20260501174019 67 293 4.3 9.6 0.00 0.00 0.00 30 1049.4
20260501173019 67 258 3.5 7.0 0.00 0.00 0.00 30 1049.3
20260501172019 67 285 5.2 7.8 0.00 0.00 0.00 30 1049.4
20260501171018 67 282 5.2 10.4 0.00 0.00 0.00 28 1049.1
20260501170018 67 293 6.1 10.4 0.00 0.00 0.00 28 1049.5
20260501165018 68 262 3.5 9.6 0.00 0.00 0.00 28 1049.3
20260501164018 68 281 4.3 7.8 0.00 0.00 0.00 30 1049.4